Regional Weather Roundup
Issued by NWS

Current Version | Previous Version | Text Only | Print | Product List | Glossary On
Versions: 1 2 3 4 5 6 7 8 9 10 11 12 13 14 15 16 17 18 19 20 21 22 23 24 25 26 27
000
ASPQ40 PGUM 260812
RWRPQ
WEATHER ROUNDUP FOR THE MARIANAS AND MICRONESIA
NATIONAL WEATHER SERVICE TIYAN GU
600 PM CHST WED JUL 26 2017

GUZ001>004-260900-
MARIANA ISLANDS-

CITY           SKY/WX    TMP DP  RH WIND       PRES   REMARKS
GUAM AIRPORT   CLOUDY    82  75  78 S5        29.82R
ANDERSEN AFB   SUNNY     84  72  65 SW5       29.83R
ROTA AIRPORT   MOSUNNY   84  75  74 W6        29.81R HX  92
TINIAN AP      MOSUNNY   84  75  74 SW6       29.78R HX  92
SAIPAN AP      MOSUNNY   88  79  74 W5        29.78S HX 102

$$

PMZ161-260900-
REPUBLIC OF PALAU-

CITY           SKY/WX    TMP DP  RH WIND       PRES   REMARKS
KOROR AP       PTSUNNY   84  77  79 S6        29.75R HX  94
KOROR WSO      CLOUDY    88  77  70 CALM      29.76R HX 100

$$

PMZ171>174-260900-
FEDERATED STATES OF MICRONESIA-

CITY           SKY/WX    TMP DP  RH WIND       PRES   REMARKS
YAP AIRPORT    PTSUNNY   84  77  79 VRB7      29.75R HX  94
CHUUK AP       MOCLDY    84  79  84 VRB6      29.77R HX  96
POHNPEI AP     NOT AVBL
POHNPEI WSO    CLOUDY    82  77  83 NE5       29.79R HX  91
KOSRAE AP      NOT AVBL

$$

PMZ181-260900-
REPUBLIC OF THE MARSHALL ISLANDS-

CITY           SKY/WX    TMP DP  RH WIND       PRES   REMARKS
KWAJALEIN AP   PTCLDY    84  75  74 E12       29.82R HX  92
MAJURO AP      CLOUDY    82  75  78 NE7       29.78S
MAJURO WSO     CLOUDY    82  77  83 E9        29.80R HX  91

$$





USA.gov is the U.S. government's official web portal to all federal, state and local government web resources and services.